| time (UTC) | temp C | wind direction | speed KPH | gust KPH | rain 1hr cm | rain 24hr cm | rain mn cm | humidity % | barometer mb |
| 20260510144558 | 12 | 249 | 3.2 | 6.4 | 0.00 | 0.00 | 0.00 | 39 | 1017.9 |
| 20260510143057 | 12 | 235 | 3.2 | 8.0 | 0.00 | 0.00 | 0.00 | 40 | 1018.0 |
| 20260510141601 | 12 | 23 | 0.0 | 3.2 | 0.00 | 0.00 | 0.00 | 44 | 1017.9 |
| 20260510140057 | 11 | 125 | 1.6 | 6.4 | 0.00 | 0.00 | 0.00 | 49 | 1017.8 |
| 20260510134601 | 11 | 117 | 1.6 | 4.8 | 0.00 | 0.00 | 0.00 | 50 | 1017.8 |
| 20260510133055 | 10 | 243 | 0.0 | 3.2 | 0.00 | 0.00 | 0.00 | 50 | 1017.8 |
| 20260510131555 | 10 | 281 | 1.6 | 3.2 | 0.00 | 0.00 | 0.00 | 57 | 1017.6 |
| 20260510130054 | 8 | 284 | 0.0 | 4.8 | 0.00 | 0.00 | 0.00 | 63 | 1017.5 |
| 20260510124608 | 8 | 260 | 1.6 | 3.2 | 0.00 | 0.00 | 0.00 | 65 | 1017.2 |
| 20260510123054 | 7 | 266 | 1.6 | 3.2 | 0.00 | 0.00 | 0.00 | 68 | 1017.1 |
| 20260510121557 | 6 | 281 | 1.6 | 4.8 | 0.00 | 0.00 | 0.00 | 72 | 1017.2 |
| 20260510120056 | 6 | 294 | 0.0 | 1.6 | 0.00 | 0.00 | 0.00 | 76 | 1017.0 |
| 20260510114606 | 3 | 266 | 0.0 | 0.0 | 0.00 | 0.00 | 0.00 | 83 | 1016.8 |
| 20260510113055 | 3 | 0 | 0.0 | 1.6 | 0.00 | 0.00 | 0.00 | 88 | 1016.6 |
| 20260510111554 | 1 | 255 | 0.0 | 0.0 | 0.00 | 0.00 | 0.00 | 91 | 1016.4 |
| 20260510110101 | 1 | 0 | 0.0 | 0.0 | 0.00 | 0.00 | 0.00 | 91 | 1016.1 |
| 20260510104614 | 1 | 0 | 0.0 | 0.0 | 0.00 | 0.00 | 0.00 | 91 | 1016.0 |
| 20260510103055 | 1 | 0 | 0.0 | 0.0 | 0.00 | 0.00 | 0.00 | 90 | 1015.8 |
| 20260510101553 | 1 | 0 | 0.0 | 0.0 | 0.00 | 0.00 | 0.00 | 90 | 1015.7 |
| 20260510100058 | 2 | 0 | 0.0 | 0.0 | 0.00 | 0.00 | 0.00 | 90 | 1015.5 |
| 20260510094600 | 2 | 0 | 0.0 | 0.0 | 0.00 | 0.00 | 0.00 | 88 | 1015.3 |
| 20260510093059 | 2 | 0 | 0.0 | 0.0 | 0.00 | 0.00 | 0.00 | 88 | 1015.3 |
| 20260510091554 | 2 | 0 | 0.0 | 0.0 | 0.00 | 0.00 | 0.00 | 87 | 1015.2 |
| 20260510090056 | 2 | 0 | 0.0 | 0.0 | 0.00 | 0.00 | 0.00 | 86 | 1015.0 |
| 20260510084559 | 2 | 0 | 0.0 | 0.0 | 0.00 | 0.00 | 0.00 | 87 | 1014.7 |
| 20260510083101 | 2 | 0 | 0.0 | 0.0 | 0.00 | 0.00 | 0.00 | 85 | 1014.5 |
| 20260510081554 | 3 | 0 | 0.0 | 0.0 | 0.00 | 0.00 | 0.00 | 83 | 1014.4 |
| 20260510080052 | 3 | 0 | 0.0 | 0.0 | 0.00 | 0.00 | 0.00 | 83 | 1014.1 |
| 20260510074618 | 4 | 0 | 0.0 | 0.0 | 0.00 | 0.00 | 0.00 | 82 | 1013.8 |
| 20260510073058 | 4 | 0 | 0.0 | 0.0 | 0.00 | 0.00 | 0.00 | 81 | 1013.6 |
| 20260510071601 | 5 | 0 | 0.0 | 0.0 | 0.00 | 0.00 | 0.00 | 79 | 1013.5 |
| 20260510070057 | 5 | 0 | 0.0 | 0.0 | 0.00 | 0.00 | 0.00 | 76 | 1013.4 |
| 20260510064609 | 5 | 0 | 0.0 | 1.6 | 0.00 | 0.00 | 0.00 | 70 | 1013.3 |
| 20260510063100 | 6 | 0 | 0.0 | 1.6 | 0.00 | 0.00 | 0.00 | 66 | 1013.2 |
| 20260510061554 | 6 | 0 | 0.0 | 1.6 | 0.00 | 0.00 | 0.00 | 64 | 1013.2 |
| 20260510060058 | 7 | 0 | 0.0 | 1.6 | 0.00 | 0.00 | 0.00 | 61 | 1013.0 |
| 20260510054554 | 7 | 65 | 0.0 | 4.8 | 0.00 | 0.00 | 0.00 | 60 | 1012.8 |
| 20260510053054 | 7 | 34 | 3.2 | 11.3 | 0.00 | 0.00 | 0.00 | 59 | 1012.8 |
| 20260510051602 | 8 | 58 | 6.4 | 19.3 | 0.00 | 0.00 | 0.00 | 56 | 1012.5 |
| 20260510050055 | 9 | 36 | 8.0 | 14.5 | 0.00 | 0.00 | 0.00 | 51 | 1012.3 |
| 20260510044556 | 10 | 82 | 8.0 | 16.1 | 0.00 | 0.00 | 0.00 | 49 | 1011.7 |
| 20260510043101 | 10 | 0 | 0.0 | 1.6 | 0.00 | 0.00 | 0.00 | 47 | 1011.2 |
| 20260510041609 | 10 | 210 | 0.0 | 3.2 | 0.00 | 0.00 | 0.00 | 46 | 1011.0 |
| 20260510040054 | 9 | 177 | 0.0 | 1.6 | 0.00 | 0.00 | 0.00 | 51 | 1010.8 |
| 20260510034559 | 10 | 0 | 0.0 | 3.2 | 0.00 | 0.00 | 0.00 | 49 | 1010.6 |
| 20260510033103 | 10 | 0 | 0.0 | 1.6 | 0.00 | 0.00 | 0.00 | 49 | 1010.3 |
| 20260510031602 | 11 | 0 | 0.0 | 1.6 | 0.00 | 0.00 | 0.00 | 46 | 1010.2 |
| 20260510030105 | 11 | 0 | 0.0 | 3.2 | 0.00 | 0.00 | 0.00 | 44 | 1010.0 |
| 20260510024603 | 11 | 233 | 0.0 | 1.6 | 0.00 | 0.00 | 0.00 | 44 | 1009.8 |
| 20260510023053 | 11 | 249 | 0.0 | 6.4 | 0.00 | 0.00 | 0.00 | 46 | 1009.5 |
| 20260510021553 | 11 | 0 | 0.0 | 3.2 | 0.00 | 0.00 | 0.00 | 51 | 1009.3 |
| 20260510020054 | 11 | 0 | 0.0 | 1.6 | 0.00 | 0.00 | 0.00 | 53 | 1008.9 |
| 20260510014554 | 12 | 0 | 0.0 | 0.0 | 0.00 | 0.00 | 0.00 | 52 | 1008.5 |
| 20260510013105 | 13 | 0 | 0.0 | 1.6 | 0.00 | 0.00 | 0.00 | 46 | 1008.2 |
| 20260510011553 | 13 | 0 | 0.0 | 1.6 | 0.00 | 0.00 | 0.00 | 43 | 1007.8 |
| 20260510010105 | 15 | 0 | 0.0 | 1.6 | 0.00 | 0.00 | 0.00 | 40 | 1007.4 |
| 20260510004600 | 15 | 0 | 0.0 | 8.0 | 0.00 | 0.00 | 0.00 | 38 | 1007.2 |
| 20260510003056 | 16 | 0 | 0.0 | 6.4 | 0.00 | 0.00 | 0.00 | 37 | 1006.9 |
| 20260510001552 | 16 | 226 | 4.8 | 12.9 | 0.00 | 0.00 | 0.00 | 36 | 1006.6 |
| 20260510000108 | 17 | 170 | 1.6 | 12.9 | 0.00 | 0.00 | 0.00 | 36 | 1006.3 |
| 20260509234604 | 17 | 0 | 1.6 | 11.3 | 0.00 | 0.00 | 0.00 | 37 | 1006.1 |
| 20260509233053 | 17 | 295 | 3.2 | 11.3 | 0.00 | 0.00 | 0.00 | 36 | 1006.1 |
| 20260509231557 | 18 | 48 | 3.2 | 9.7 | 0.00 | 0.00 | 0.00 | 36 | 1005.9 |
| 20260509230053 | 18 | 275 | 1.6 | 14.5 | 0.00 | 0.00 | 0.00 | 36 | 1005.7 |
| 20260509224554 | 18 | 302 | 1.6 | 8.0 | 0.00 | 0.00 | 0.00 | 35 | 1005.5 |
| 20260509223051 | 18 | 271 | 1.6 | 16.1 | 0.00 | 0.00 | 0.00 | 35 | 1005.4 |
| 20260509221608 | 18 | 347 | 6.4 | 14.5 | 0.00 | 0.00 | 0.00 | 33 | 1005.0 |
| 20260509214551 | 18 | 273 | 3.2 | 17.7 | 0.00 | 0.00 | 0.00 | 34 | 1004.6 |
| 20260509213053 | 19 | 310 | 4.8 | 16.1 | 0.00 | 0.00 | 0.00 | 35 | 1004.3 |
| 20260509211554 | 19 | 348 | 4.8 | 17.7 | 0.00 | 0.00 | 0.00 | 35 | 1004.0 |
| 20260509210059 | 19 | 39 | 6.4 | 17.7 | 0.00 | 0.00 | 0.00 | 36 | 1004.1 |
| 20260509204559 | 19 | 292 | 1.6 | 17.7 | 0.00 | 0.00 | 0.00 | 37 | 1003.8 |
| 20260509203055 | 20 | 257 | 6.4 | 16.1 | 0.00 | 0.00 | 0.00 | 37 | 1003.5 |
| 20260509201558 | 20 | 291 | 8.0 | 19.3 | 0.00 | 0.00 | 0.00 | 35 | 1003.5 |
| 20260509200105 | 20 | 302 | 4.8 | 16.1 | 0.00 | 0.00 | 0.00 | 35 | 1003.2 |
| 20260509194556 | 20 | 276 | 16.1 | 30.6 | 0.00 | 0.00 | 0.00 | 31 | 1002.9 |
| 20260509193108 | 20 | 278 | 19.3 | 33.8 | 0.00 | 0.00 | 0.00 | 31 | 1002.7 |
| 20260509191612 | 20 | 251 | 16.1 | 37.0 | 0.00 | 0.00 | 0.00 | 32 | 1002.6 |
| 20260509190112 | 20 | 274 | 11.3 | 25.7 | 0.00 | 0.00 | 0.00 | 35 | 1002.4 |
| 20260509184555 | 21 | 277 | 11.3 | 29.0 | 0.00 | 0.00 | 0.00 | 33 | 1002.2 |
| 20260509183054 | 20 | 285 | 6.4 | 29.0 | 0.00 | 0.00 | 0.00 | 35 | 1002.0 |
| 20260509181555 | 20 | 297 | 6.4 | 22.5 | 0.00 | 0.00 | 0.00 | 33 | 1002.0 |
| 20260509180054 | 20 | 262 | 14.5 | 22.5 | 0.00 | 0.00 | 0.00 | 34 | 1001.9 |
| 20260509174554 | 20 | 269 | 14.5 | 24.1 | 0.00 | 0.00 | 0.00 | 33 | 1001.9 |
| 20260509173104 | 20 | 252 | 11.3 | 22.5 | 0.00 | 0.00 | 0.00 | 33 | 1002.1 |
| 20260509171606 | 19 | 315 | 12.9 | 32.2 | 0.00 | 0.00 | 0.00 | 34 | 1002.2 |
| 20260509170055 | 18 | 285 | 17.7 | 40.2 | 0.00 | 0.00 | 0.00 | 34 | 1002.3 |
| 20260509164556 | 17 | 253 | 12.9 | 22.5 | 0.00 | 0.00 | 0.00 | 37 | 1002.5 |
| 20260509163059 | 17 | 276 | 6.4 | 20.9 | 0.00 | 0.00 | 0.00 | 38 | 1002.7 |
| 20260509161553 | 16 | 287 | 8.0 | 17.7 | 0.00 | 0.00 | 0.00 | 38 | 1002.8 |
| 20260509160054 | 17 | 292 | 4.8 | 17.7 | 0.00 | 0.00 | 0.00 | 38 | 1003.1 |
| 20260509154552 | 16 | 276 | 4.8 | 11.3 | 0.00 | 0.00 | 0.00 | 37 | 1003.1 |
| 20260509153049 | 17 | 250 | 9.7 | 22.5 | 0.00 | 0.00 | 0.00 | 37 | 1003.0 |
| 20260509151558 | 17 | 249 | 8.0 | 14.5 | 0.00 | 0.00 | 0.00 | 42 | 1002.9 |
| 20260509150054 | 16 | 285 | 4.8 | 14.5 | 0.00 | 0.00 | 0.00 | 45 | 1002.5 |